COSMOS 1275 DEB, 12670

Orbit data source: Space-Track

COSMOS 1275 DEB, 12670 is space debris in LEO originally from a launch on Thu, 04 Jun 1981 UTC launched from the Plesetsk Missile And Space Complex (PKMTR). Debris objects in space refer to the collection of defunct objects orbiting the Earth. Examples of debris include non-operational satellites, rocket bodies, and fragments generated from explosions, collisions, or faulty payload assembly.

Loading next visibility...
Identifier
12670, 1981-053AA
Orbit
LEO
Country
Flag of CISCIS
Related business
Manufacturer
Unknown
Mission
Spacecraft
Bus & Motor
Unknown
Mass
Unknown
Launch date (UTC)
1981-06-04 (45 years ago)
Launch vehicle
Unknown
Launch site
Plesetsk Missile And Space Complex (PKMTR)
Object type
Payload
Rocket body
Debris
Shape & HBR
Unknown shape, 0.4 m
Radar Cross Section
Medium (>0.1 m² and <1 m²)

Expand to show TLE details & history
Last TLE update: 9 hours ago

TLE from 9 hours ago
0 COSMOS 1275 DEB
1 12670U 81053AA  26263.11929816  .00000431  00000-0  38805-3 0  9994
2 12670  82.9400 133.4484 0054688 156.4090 356.8747 13.81211943266876
Epoch: 2026-09-20T02:51Z
TLE epoch observation values (Epoch: 2026-09-20T02:51:47.361Z)
Latitude
26.5676°
Longitude
-92.04901°
Altitude
922.751 km
Speed
7.413 km/s
True Right ascension
20h 39m 39s
True Declination
26° 26' 00"
Sunlit
Object was in full shadow at epoch
Visualization orbit readout
Latitude
Unknown
Longitude
Unknown
Altitude
Unknown
Speed
Unknown
Apparent Right ascension
Unknown
Apparent Declination
Unknown
Sunlit
N/A
Visualization observer readout
Local Sidereal Time
04:31:15
Azimuth
Unknown
Elevation
Unknown
Doppler factor
Unknown
Orbital elements
Apogee altitude
996.844 km
Perigee altitude
916.619 km
Semi-major axis
7,334.868 km
Eccentricity
0.00547
Inclination
82.94°
RAAN
133.4484°
Arg. of periapsis
156.409°
True anomaly
356.8403°
Mean anomaly
356.8747°
Eccentric anomaly
356.85752°
Mean motion
3.45505 °/min
Orbital period
104.2 mins
BSTAR
0.00038805
Loading maneuver chart data...
Computing Atmospheric mass density...

Documentation

Showing up to 5 results
|